Weather History for Flagstaff, AZ

Change the Weather History Date:

Saturday, November 9, 2013

  Actual Average Record
Temperature  
Mean Temperature 43 °F 39 °F  
Max Temperature 61 °F 53 °F 71 °F (1973)
Min Temperature 25 °F 25 °F 3 °F (1898)
Degree Days  
Heating Degree Days 22 26  
Month to date heating degree days 237 222  
Since 1 July heating degree days 1170 1105  
Cooling Degree Days 0 0  
Month to date cooling degree days 0 0  
Year to date cooling degree days 148 117  
Moisture  
Dew Point 20 °F    
Average Humidity 49    
Maximum Humidity 75    
Minimum Humidity 22    
Precipitation  
Precipitation 0.00 in 0.05 in 0.87 in (1915)
Month to date precipitation 0.00 0.51  
Year to date precipitation 21.22 18.74  
Snow  
Snow 0.00 in 0.30 in 2.50 in (2008)
Month to date snowfall 0.0 2.0  
Since 1 July snowfall 0.6 3.5  
Snow Depth 0.00 in    
Sea Level Pressure  
Sea Level Pressure 30.17 in    
Wind  
Wind Speed 4 mph (SSW)    
Max Wind Speed 15 mph    
Max Gust Speed 21 mph    
Visibility 10 miles    
Events      
T = Trace of Precipitation, MM = Missing Value Source: NWS Daily Summary

Daily Weather History Graph

Daily Weather History Graph

Search for Another Location

Airport:

Trip Planner

Search our weather history database for the weather conditions in past years. The results will help you decide how hot, cold, wet, or windy it might be!

Date:

Astronomy

Nov. 09, 2013 Rise Set
Actual Time 6:55 AM MST 5:24 PM MST
Civil Twilight 6:29 AM MST 5:51 PM MST
Nautical Twilight 5:58 AM MST 6:21 PM MST
Astronomical Twilight 5:28 AM MST 6:51 PM MST
Moon 12:37 PM MST (11/9) 11:55 PM MST (11/9)
Length of Visible Light 11h 22m
Length of Day
10h 28m
Waxing Crescent, 45% of the Moon is Illuminated
Nov 9
Waxing Crescent
Nov 9
First Quarter
Nov 17
Full
Nov 25
Last Quarter
Dec 2
New

Hourly Weather History & Observations

Time (MST) Temp. Windchill Dew Point Humidity Pressure Visibility Wind Dir Wind Speed Gust Speed Precip Events Conditions
12:57 AM 28.0 °F - 15.1 °F 58% 30.12 in 10.0 mi Calm Calm - N/A   Clear
1:57 AM 28.0 °F - 18.0 °F 66% 30.11 in 10.0 mi Calm Calm - N/A   Clear
2:57 AM 27.0 °F - 19.0 °F 72% 30.11 in 10.0 mi Calm Calm - N/A   Clear
3:57 AM 27.0 °F - 18.0 °F 69% 30.12 in 10.0 mi Calm Calm - N/A   Clear
4:57 AM 26.1 °F - 19.0 °F 75% 30.14 in 10.0 mi Calm Calm - N/A   Clear
5:57 AM 26.1 °F 21.9 °F 19.0 °F 75% 30.19 in 10.0 mi WNW 3.5 mph - N/A   Clear
6:57 AM 26.1 °F - 19.0 °F 75% 30.23 in 10.0 mi Calm Calm - N/A   Clear
7:57 AM 32.0 °F - 21.9 °F 66% 30.24 in 10.0 mi Calm Calm - N/A   Clear
8:57 AM 48.0 °F - 25.0 °F 41% 30.19 in 10.0 mi Calm Calm - N/A   Clear
9:57 AM 55.0 °F - 23.0 °F 29% 30.17 in 10.0 mi SSW 8.1 mph - N/A   Clear
10:57 AM 57.9 °F - 23.0 °F 26% 30.17 in 10.0 mi SSW 9.2 mph - N/A   Clear
11:57 AM 60.1 °F - 21.9 °F 23% 30.15 in 10.0 mi SW 10.4 mph - N/A   Clear
12:57 PM 61.0 °F - 23.0 °F 23% 30.12 in 10.0 mi SSW 15.0 mph - N/A   Clear
1:57 PM 60.1 °F - 24.1 °F 25% 30.12 in 10.0 mi South 10.4 mph 20.7 mph N/A   Clear
2:57 PM 60.1 °F - 23.0 °F 24% 30.12 in 10.0 mi South 11.5 mph - N/A   Clear
3:57 PM 59.0 °F - 21.0 °F 23% 30.13 in 10.0 mi South 10.4 mph - N/A   Clear
4:57 PM 55.9 °F - 19.0 °F 24% 30.16 in 10.0 mi South 6.9 mph - N/A   Clear
5:57 PM 46.9 °F - 19.9 °F 34% 30.21 in 10.0 mi SW 3.5 mph - N/A   Clear
6:57 PM 39.0 °F - 19.0 °F 45% 30.27 in 10.0 mi Calm Calm - N/A   Clear
7:57 PM 36.0 °F - 19.0 °F 50% 30.27 in 10.0 mi Calm Calm - N/A   Clear
8:57 PM 32.0 °F - 18.0 °F 56% 30.22 in 10.0 mi Calm Calm - N/A   Clear
9:57 PM 30.0 °F - 17.1 °F 59% 30.20 in 10.0 mi Calm Calm - N/A   Clear
10:57 PM 28.0 °F 24.2 °F 17.1 °F 63% 30.21 in 10.0 mi NE 3.5 mph - N/A   Clear
11:57 PM 28.0 °F - 17.1 °F 63% 30.19 in 10.0 mi Calm Calm - N/A   Clear